sat.trackr.live / text

‹ back to catalog

STARLINK-34819

NORAD 65040 · 2025-161AB

PAYLOAD ACTIVE UNKNOWN

§ Identity

Operator
Country
US
Launch date
2025-07-30
Launch site
AFWTR
Launch vehicle
Mass (kg)
RCS (m²)

Purposes: comms

External: N2YO · Heavens-Above · Gunter

§ Orbital elements

Epoch: 2026-05-24T20:08:51.408096Z

Period
94.10 min
Inclination
53.1600°
Eccentricity
0.0000488
Mean motion
15.30209574 rev/d
Perigee alt
474.9 km
Apogee alt
475.5 km
Semi-major
6,853.3 km
B*
7.6882e-4
RAAN
300.8491°
Arg perigee
91.6858°
Mean anomaly
268.4198°
Rev number
4,588

§ Raw data

STARLINK-348191 65040U 25161AB  26144.83948389  .00022487  00000+0  76882-3 0  99952 65040  53.1600 300.8491 0000488  91.6858 268.4198 15.30209574 45883

JSON: /api/v1/satellites/65040 · /tle

For live sub-satellite position, see the globe view (requires WebGL).

§ Visibility from observer

Set your observer location to see the next 7 days of passes ≥ 10°. The values pass through the URL so the page stays shareable.

No JS? Fill the form by hand. The geolocation button needs JavaScript.